Year,Month,Day,Hour,Minute,Value (Times are PST for temperature in C)
2011,04,22,00,00,6.40
2011,04,22,00,01,6.40
2011,04,22,00,02,6.40
2011,04,22,00,03,6.40
2011,04,22,00,04,6.40
2011,04,22,00,05,6.40
2011,04,22,00,06,6.40
2011,04,22,00,07,6.40
2011,04,22,00,08,6.40
2011,04,22,00,09,6.40
2011,04,22,00,10,6.40
2011,04,22,00,11,6.40
2011,04,22,00,12,6.40
2011,04,22,00,13,6.50
2011,04,22,00,14,6.60
2011,04,22,00,15,6.60
2011,04,22,00,16,6.60
2011,04,22,00,17,6.60
2011,04,22,00,18,6.60
2011,04,22,00,19,6.60
2011,04,22,00,20,6.60
2011,04,22,00,21,6.60
2011,04,22,00,22,6.60
2011,04,22,00,23,6.60
2011,04,22,00,24,6.60
2011,04,22,00,25,6.60
2011,04,22,00,26,6.60
2011,04,22,00,27,6.60
2011,04,22,00,28,6.60
2011,04,22,00,29,6.60
2011,04,22,00,30,6.60
2011,04,22,00,31,6.60
2011,04,22,00,32,6.50
2011,04,22,00,33,6.40
2011,04,22,00,34,6.40
2011,04,22,00,35,6.40
2011,04,22,00,36,6.40
2011,04,22,00,37,6.40
2011,04,22,00,38,6.40
2011,04,22,00,39,6.40
2011,04,22,00,40,6.40
2011,04,22,00,41,6.40
2011,04,22,00,42,6.40
2011,04,22,00,43,6.40
2011,04,22,00,44,6.40
2011,04,22,00,45,6.40
2011,04,22,00,46,6.40
2011,04,22,00,47,6.40
2011,04,22,00,48,6.40
2011,04,22,00,49,6.40
2011,04,22,00,50,6.40
2011,04,22,00,51,6.40
2011,04,22,00,52,6.40
2011,04,22,00,53,6.40
2011,04,22,00,54,6.40
2011,04,22,00,55,6.40
2011,04,22,00,56,6.40
2011,04,22,00,57,6.40
2011,04,22,00,58,6.40
2011,04,22,00,59,6.40
2011,04,22,01,00,6.30
2011,04,22,01,01,6.30
2011,04,22,01,02,6.30
2011,04,22,01,03,6.30
2011,04,22,01,04,6.30
2011,04,22,01,05,6.30
2011,04,22,01,06,6.30
2011,04,22,01,07,6.20
2011,04,22,01,08,6.20
2011,04,22,01,09,6.20
2011,04,22,01,10,6.20
2011,04,22,01,11,6.20
2011,04,22,01,12,6.20
2011,04,22,01,13,6.20
2011,04,22,01,14,6.20
2011,04,22,01,15,6.20
2011,04,22,01,16,6.20
2011,04,22,01,17,6.20
2011,04,22,01,18,6.20
2011,04,22,01,19,6.20
2011,04,22,01,20,6.20
2011,04,22,01,21,6.20
2011,04,22,01,22,6.20
2011,04,22,01,23,6.20
2011,04,22,01,24,6.20
2011,04,22,01,25,6.20
2011,04,22,01,26,6.20
2011,04,22,01,27,6.20
2011,04,22,01,28,6.20
2011,04,22,01,29,6.20
2011,04,22,01,30,6.20
2011,04,22,01,31,6.20
2011,04,22,01,32,6.20
2011,04,22,01,33,6.20
2011,04,22,01,34,6.20
2011,04,22,01,35,6.10
2011,04,22,01,36,6.10
2011,04,22,01,37,6.10
2011,04,22,01,38,6.10
2011,04,22,01,39,6.10
2011,04,22,01,40,6.10
2011,04,22,01,41,6.10
2011,04,22,01,42,6.10
2011,04,22,01,43,6.10
2011,04,22,01,44,6.10
2011,04,22,01,45,6.00
2011,04,22,01,46,6.00
2011,04,22,01,47,6.00
2011,04,22,01,48,6.00
2011,04,22,01,49,6.00
2011,04,22,01,50,6.00
2011,04,22,01,51,6.00
2011,04,22,01,52,6.00
2011,04,22,01,53,6.00
2011,04,22,01,54,5.90
2011,04,22,01,55,6.00
2011,04,22,01,56,6.00
2011,04,22,01,57,6.00
2011,04,22,01,58,6.00
2011,04,22,01,59,6.00
2011,04,22,02,00,6.00
2011,04,22,02,01,6.00
2011,04,22,02,02,6.00
2011,04,22,02,03,6.00
2011,04,22,02,04,6.00
2011,04,22,02,05,6.00
2011,04,22,02,06,6.00
2011,04,22,02,07,6.10
2011,04,22,02,08,6.10
2011,04,22,02,09,6.10
2011,04,22,02,10,6.10
2011,04,22,02,11,6.10
2011,04,22,02,12,6.10
2011,04,22,02,13,6.10
2011,04,22,02,14,6.10
2011,04,22,02,15,6.20
2011,04,22,02,16,6.20
2011,04,22,02,17,6.20
2011,04,22,02,18,6.20
2011,04,22,02,19,6.20
2011,04,22,02,20,6.20
2011,04,22,02,21,6.20
2011,04,22,02,22,6.20
2011,04,22,02,23,6.20
2011,04,22,02,24,6.20
2011,04,22,02,25,6.10
2011,04,22,02,26,6.10
2011,04,22,02,27,6.10
2011,04,22,02,28,6.10
2011,04,22,02,29,6.00
2011,04,22,02,30,6.00
2011,04,22,02,31,6.00
2011,04,22,02,32,6.00
2011,04,22,02,33,6.00
2011,04,22,02,34,6.00
2011,04,22,02,35,6.00
2011,04,22,02,36,6.00
2011,04,22,02,37,5.90
2011,04,22,02,38,5.90
2011,04,22,02,39,5.90
2011,04,22,02,40,5.90
2011,04,22,02,41,5.90
2011,04,22,02,42,5.90
2011,04,22,02,43,5.90
2011,04,22,02,44,5.90
2011,04,22,02,45,5.90
2011,04,22,02,46,5.80
2011,04,22,02,47,5.80
2011,04,22,02,48,5.80
2011,04,22,02,49,5.80
2011,04,22,02,50,5.80
2011,04,22,02,51,5.80
2011,04,22,02,52,5.80
2011,04,22,02,53,5.70
2011,04,22,02,54,5.70
2011,04,22,02,55,5.70
2011,04,22,02,56,5.70
2011,04,22,02,57,5.70
2011,04,22,02,58,5.70
2011,04,22,02,59,5.70
2011,04,22,03,00,5.70
2011,04,22,03,01,5.70
2011,04,22,03,02,5.70
2011,04,22,03,03,5.70
2011,04,22,03,04,5.70
2011,04,22,03,05,5.70
2011,04,22,03,06,5.70
2011,04,22,03,07,5.70
2011,04,22,03,08,5.70
2011,04,22,03,09,5.70
2011,04,22,03,10,5.60
2011,04,22,03,11,5.60
2011,04,22,03,12,5.60
2011,04,22,03,13,5.60
2011,04,22,03,14,5.70
2011,04,22,03,15,5.70
2011,04,22,03,16,5.70
2011,04,22,03,17,5.70
2011,04,22,03,18,5.70
2011,04,22,03,19,5.70
2011,04,22,03,20,5.70
2011,04,22,03,21,5.70
2011,04,22,03,22,5.70
2011,04,22,03,23,5.70
2011,04,22,03,24,5.70
2011,04,22,03,25,5.70
2011,04,22,03,26,5.70
2011,04,22,03,27,5.70
2011,04,22,03,28,5.70
2011,04,22,03,29,5.70
2011,04,22,03,30,5.70
2011,04,22,03,31,5.70
2011,04,22,03,32,5.70
2011,04,22,03,33,5.70
2011,04,22,03,34,5.70
2011,04,22,03,35,5.70
2011,04,22,03,36,5.70
2011,04,22,03,37,5.80
2011,04,22,03,38,5.80
2011,04,22,03,39,5.80
2011,04,22,03,40,5.80
2011,04,22,03,41,5.80
2011,04,22,03,42,5.80
2011,04,22,03,43,5.80
2011,04,22,03,44,5.80
2011,04,22,03,45,5.80
2011,04,22,03,46,5.80
2011,04,22,03,47,5.80
2011,04,22,03,48,5.80
2011,04,22,03,49,5.80
2011,04,22,03,50,5.80
2011,04,22,03,51,5.70
2011,04,22,03,52,5.70
2011,04,22,03,53,5.70
2011,04,22,03,54,5.70
2011,04,22,03,55,5.70
2011,04,22,03,56,5.70
2011,04,22,03,57,5.70
2011,04,22,03,58,5.70
2011,04,22,03,59,5.70
2011,04,22,04,00,5.70
2011,04,22,04,01,5.70
2011,04,22,04,02,5.60
2011,04,22,04,03,5.50
2011,04,22,04,04,5.40
2011,04,22,04,05,5.40
2011,04,22,04,06,5.30
2011,04,22,04,07,5.20
2011,04,22,04,08,5.10
2011,04,22,04,09,5.10
2011,04,22,04,10,5.10
2011,04,22,04,11,5.00
2011,04,22,04,12,4.90
2011,04,22,04,13,4.90
2011,04,22,04,14,4.80
2011,04,22,04,15,4.80
2011,04,22,04,16,4.80
2011,04,22,04,17,4.70
2011,04,22,04,18,4.70
2011,04,22,04,19,4.60
2011,04,22,04,20,4.60
2011,04,22,04,21,4.60
2011,04,22,04,22,4.60
2011,04,22,04,23,4.50
2011,04,22,04,24,4.50
2011,04,22,04,25,4.40
2011,04,22,04,26,4.40
2011,04,22,04,27,4.30
2011,04,22,04,28,4.30
2011,04,22,04,29,4.30
2011,04,22,04,30,4.30
2011,04,22,04,31,4.30
2011,04,22,04,32,4.20
2011,04,22,04,33,4.20
2011,04,22,04,34,4.20
2011,04,22,04,35,4.20
2011,04,22,04,36,4.20
2011,04,22,04,37,4.10
2011,04,22,04,38,4.10
2011,04,22,04,39,4.00
2011,04,22,04,40,4.00
2011,04,22,04,41,4.00
2011,04,22,04,42,3.90
2011,04,22,04,43,3.90
2011,04,22,04,44,3.80
2011,04,22,04,45,3.80
2011,04,22,04,46,3.80
2011,04,22,04,47,3.80
2011,04,22,04,48,3.80
2011,04,22,04,49,3.80
2011,04,22,04,50,3.80
2011,04,22,04,51,3.80
2011,04,22,04,52,3.70
2011,04,22,04,53,3.70
2011,04,22,04,54,3.70
2011,04,22,04,55,3.70
2011,04,22,04,56,3.70
2011,04,22,04,57,3.70
2011,04,22,04,58,3.60
2011,04,22,04,59,3.60
2011,04,22,05,00,3.60
2011,04,22,05,01,3.60
2011,04,22,05,02,3.60
2011,04,22,05,03,3.50
2011,04,22,05,04,3.50
2011,04,22,05,05,3.50
2011,04,22,05,06,3.50
2011,04,22,05,07,3.40
2011,04,22,05,08,3.40
2011,04,22,05,09,3.30
2011,04,22,05,10,3.30
2011,04,22,05,11,3.30
2011,04,22,05,12,3.30
2011,04,22,05,13,3.30
2011,04,22,05,14,3.30
2011,04,22,05,15,3.20
2011,04,22,05,16,3.20
2011,04,22,05,17,3.20
2011,04,22,05,18,3.20
2011,04,22,05,19,3.20
2011,04,22,05,20,3.10
2011,04,22,05,21,3.10
2011,04,22,05,22,3.10
2011,04,22,05,23,3.10
2011,04,22,05,24,3.10
2011,04,22,05,25,3.10
2011,04,22,05,26,3.10
2011,04,22,05,27,3.10
2011,04,22,05,28,3.10
2011,04,22,05,29,3.00
2011,04,22,05,30,2.90
2011,04,22,05,31,2.90
2011,04,22,05,32,2.90
2011,04,22,05,33,2.90
2011,04,22,05,34,2.90
2011,04,22,05,35,2.90
2011,04,22,05,36,2.90
2011,04,22,05,37,2.90
2011,04,22,05,38,2.90
2011,04,22,05,39,2.90
2011,04,22,05,40,2.80
2011,04,22,05,41,2.80
2011,04,22,05,42,2.80
2011,04,22,05,43,2.80
2011,04,22,05,44,2.80
2011,04,22,05,45,2.70
2011,04,22,05,46,2.70
2011,04,22,05,47,2.70
2011,04,22,05,48,2.70
2011,04,22,05,49,2.70
2011,04,22,05,50,2.70
2011,04,22,05,51,2.70
2011,04,22,05,52,2.70
2011,04,22,05,53,2.70
2011,04,22,05,54,2.70
2011,04,22,05,55,2.70
2011,04,22,05,56,2.70
2011,04,22,05,57,2.70
2011,04,22,05,58,2.70
2011,04,22,05,59,2.70
2011,04,22,06,00,2.70
2011,04,22,06,01,2.60
2011,04,22,06,02,2.60
2011,04,22,06,03,2.60
2011,04,22,06,04,2.60
2011,04,22,06,05,2.60
2011,04,22,06,06,2.50
2011,04,22,06,07,2.50
2011,04,22,06,08,2.50
2011,04,22,06,09,2.50
2011,04,22,06,10,2.50
2011,04,22,06,11,2.50
2011,04,22,06,12,2.40
2011,04,22,06,13,2.40
2011,04,22,06,14,2.40
2011,04,22,06,15,2.40
2011,04,22,06,16,2.40
2011,04,22,06,17,2.40
2011,04,22,06,18,2.40
2011,04,22,06,19,2.40
2011,04,22,06,20,2.40
2011,04,22,06,21,2.40
2011,04,22,06,22,2.40
2011,04,22,06,23,2.40
2011,04,22,06,24,2.40
2011,04,22,06,25,2.40
2011,04,22,06,26,2.40
2011,04,22,06,27,2.40
2011,04,22,06,28,2.40
2011,04,22,06,29,2.40
2011,04,22,06,30,2.30
2011,04,22,06,31,2.30
2011,04,22,06,32,2.30
2011,04,22,06,33,2.40
2011,04,22,06,34,2.40
2011,04,22,06,35,2.40
2011,04,22,06,36,2.40
2011,04,22,06,37,2.40
2011,04,22,06,38,2.40
2011,04,22,06,39,2.50
2011,04,22,06,40,2.50
2011,04,22,06,41,2.50
2011,04,22,06,42,2.50
2011,04,22,06,43,2.50
2011,04,22,06,44,2.50
2011,04,22,06,45,2.50
2011,04,22,06,46,2.50
2011,04,22,06,47,2.50
2011,04,22,06,48,2.60
2011,04,22,06,49,2.60
2011,04,22,06,50,2.60
2011,04,22,06,51,2.60
2011,04,22,06,52,2.60
2011,04,22,06,53,2.60
2011,04,22,06,54,2.60
2011,04,22,06,55,2.70
2011,04,22,06,56,2.70
2011,04,22,06,57,2.70
2011,04,22,06,58,2.80
2011,04,22,06,59,2.80
2011,04,22,07,00,2.90
2011,04,22,07,01,2.90
2011,04,22,07,02,2.90
2011,04,22,07,03,3.00
2011,04,22,07,04,3.10
2011,04,22,07,05,3.10
2011,04,22,07,06,3.10
2011,04,22,07,07,3.20
2011,04,22,07,08,3.20
2011,04,22,07,09,3.20
2011,04,22,07,10,3.30
2011,04,22,07,11,3.30
2011,04,22,07,12,3.30
2011,04,22,07,13,3.30
2011,04,22,07,14,3.40
2011,04,22,07,15,3.40
2011,04,22,07,16,3.50
2011,04,22,07,17,3.50
2011,04,22,07,18,3.60
2011,04,22,07,19,3.60
2011,04,22,07,20,3.70
2011,04,22,07,21,3.70
2011,04,22,07,22,3.70
2011,04,22,07,23,3.70
2011,04,22,07,24,3.70
2011,04,22,07,25,3.80
2011,04,22,07,26,3.80
2011,04,22,07,27,3.80
2011,04,22,07,28,3.80
2011,04,22,07,29,3.80
2011,04,22,07,30,3.80
2011,04,22,07,31,3.80
2011,04,22,07,32,3.90
2011,04,22,07,33,4.00
2011,04,22,07,34,4.00
2011,04,22,07,35,4.10
2011,04,22,07,36,4.20
2011,04,22,07,37,4.20
2011,04,22,07,38,4.30
2011,04,22,07,39,4.40
2011,04,22,07,40,4.50
2011,04,22,07,41,4.60
2011,04,22,07,42,4.70
2011,04,22,07,43,4.70
2011,04,22,07,44,4.80
2011,04,22,07,45,4.90
2011,04,22,07,46,4.90
2011,04,22,07,47,4.90
2011,04,22,07,48,5.00
2011,04,22,07,49,5.10
2011,04,22,07,50,5.10
2011,04,22,07,51,5.10
2011,04,22,07,52,5.10
2011,04,22,07,53,5.20
2011,04,22,07,54,5.30
2011,04,22,07,55,5.30
2011,04,22,07,56,5.40
2011,04,22,07,57,5.50
2011,04,22,07,58,5.60
2011,04,22,07,59,5.60
2011,04,22,08,00,5.60
2011,04,22,08,01,5.60
2011,04,22,08,02,5.60
2011,04,22,08,03,5.60
2011,04,22,08,04,5.70
2011,04,22,08,05,5.70
2011,04,22,08,06,5.70
2011,04,22,08,07,5.80
2011,04,22,08,08,5.90
2011,04,22,08,09,6.00
2011,04,22,08,10,6.00
2011,04,22,08,11,6.10
2011,04,22,08,12,6.20
2011,04,22,08,13,6.30
2011,04,22,08,14,6.40
2011,04,22,08,15,6.40
2011,04,22,08,16,6.50
2011,04,22,08,17,6.60
2011,04,22,08,18,6.60
2011,04,22,08,19,6.60
2011,04,22,08,20,6.70
2011,04,22,08,21,6.80
2011,04,22,08,22,6.80
2011,04,22,08,23,6.80
2011,04,22,08,24,6.90
2011,04,22,08,25,7.00
2011,04,22,08,26,7.00
2011,04,22,08,27,7.10
2011,04,22,08,28,7.20
2011,04,22,08,29,7.20
2011,04,22,08,30,7.30
2011,04,22,08,31,7.30
2011,04,22,08,32,7.40
2011,04,22,08,33,7.40
2011,04,22,08,34,7.50
2011,04,22,08,35,7.50
2011,04,22,08,36,7.60
2011,04,22,08,37,7.60
2011,04,22,08,38,7.60
2011,04,22,08,39,7.70
2011,04,22,08,40,7.80
2011,04,22,08,41,7.80
2011,04,22,08,42,7.80
2011,04,22,08,43,7.90
2011,04,22,08,44,8.00
2011,04,22,08,45,8.00
2011,04,22,08,46,8.10
2011,04,22,08,47,8.20
2011,04,22,08,48,8.30
2011,04,22,08,49,8.40
2011,04,22,08,50,8.50
2011,04,22,08,51,8.50
2011,04,22,08,52,8.50
2011,04,22,08,53,8.60
2011,04,22,08,54,8.60
2011,04,22,08,55,8.60
2011,04,22,08,56,8.60
2011,04,22,08,57,8.70
2011,04,22,08,58,8.70
2011,04,22,08,59,8.80
2011,04,22,09,00,8.80
2011,04,22,09,01,8.90
2011,04,22,09,02,8.90
2011,04,22,09,03,9.00
2011,04,22,09,04,9.00
2011,04,22,09,05,9.10
2011,04,22,09,06,9.10
2011,04,22,09,07,9.20
2011,04,22,09,08,9.20
2011,04,22,09,09,9.20
2011,04,22,09,10,9.20
2011,04,22,09,11,9.30
2011,04,22,09,12,9.30
2011,04,22,09,13,9.30
2011,04,22,09,14,9.40
2011,04,22,09,15,9.50
2011,04,22,09,16,9.50
2011,04,22,09,17,9.60
2011,04,22,09,18,9.60
2011,04,22,09,19,9.60
2011,04,22,09,20,9.70
2011,04,22,09,21,9.70
2011,04,22,09,22,9.70
2011,04,22,09,23,9.70
2011,04,22,09,24,9.80
2011,04,22,09,25,9.80
2011,04,22,09,26,9.80
2011,04,22,09,27,9.80
2011,04,22,09,28,9.80
2011,04,22,09,29,9.70
2011,04,22,09,30,9.70
2011,04,22,09,31,9.70
2011,04,22,09,32,9.70
2011,04,22,09,33,9.70
2011,04,22,09,34,9.70
2011,04,22,09,35,9.70
2011,04,22,09,36,9.70
2011,04,22,09,37,9.70
2011,04,22,09,38,9.70
2011,04,22,09,39,9.70
2011,04,22,09,40,9.70
2011,04,22,09,41,9.70
2011,04,22,09,42,9.80
2011,04,22,09,43,9.80
2011,04,22,09,44,9.70
2011,04,22,09,45,9.70
2011,04,22,09,46,9.70
2011,04,22,09,47,9.80
2011,04,22,09,48,9.80
2011,04,22,09,49,9.90
2011,04,22,09,50,10.00
2011,04,22,09,51,10.10
2011,04,22,09,52,10.10
2011,04,22,09,53,10.10
2011,04,22,09,54,10.00
2011,04,22,09,55,9.90
2011,04,22,09,56,10.10
2011,04,22,09,57,10.10
2011,04,22,09,58,10.10
2011,04,22,09,59,10.10
2011,04,22,10,00,10.20
2011,04,22,10,01,10.20
2011,04,22,10,02,10.30
2011,04,22,10,03,10.40
2011,04,22,10,04,10.40
2011,04,22,10,05,10.40
2011,04,22,10,06,10.40
2011,04,22,10,07,10.40
2011,04,22,10,08,10.40
2011,04,22,10,09,10.30
2011,04,22,10,10,10.30
2011,04,22,10,11,10.30
2011,04,22,10,12,10.20
2011,04,22,10,13,10.10
2011,04,22,10,14,10.10
2011,04,22,10,15,10.10
2011,04,22,10,16,10.10
2011,04,22,10,17,10.10
2011,04,22,10,18,10.20
2011,04,22,10,19,10.30
2011,04,22,10,20,10.30
2011,04,22,10,21,10.30
2011,04,22,10,22,10.30
2011,04,22,10,23,10.30
2011,04,22,10,24,10.30
2011,04,22,10,25,10.40
2011,04,22,10,26,10.40
2011,04,22,10,27,10.50
2011,04,22,10,28,10.60
2011,04,22,10,29,10.60
2011,04,22,10,30,10.70
2011,04,22,10,31,10.80
2011,04,22,10,32,10.90
2011,04,22,10,33,10.90
2011,04,22,10,34,10.90
2011,04,22,10,35,10.80
2011,04,22,10,36,10.70
2011,04,22,10,37,10.70
2011,04,22,10,38,10.70
2011,04,22,10,39,10.60
2011,04,22,10,40,10.40
2011,04,22,10,41,10.40
2011,04,22,10,42,10.30
2011,04,22,10,43,10.30
2011,04,22,10,44,10.40
2011,04,22,10,45,10.40
2011,04,22,10,46,10.40
2011,04,22,10,47,10.50
2011,04,22,10,48,10.60
2011,04,22,10,49,10.70
2011,04,22,10,50,10.60
2011,04,22,10,51,10.60
2011,04,22,10,52,10.70
2011,04,22,10,53,10.80
2011,04,22,10,54,10.80
2011,04,22,10,55,10.70
2011,04,22,10,56,10.70
2011,04,22,10,57,10.80
2011,04,22,10,58,10.90
2011,04,22,10,59,10.90
2011,04,22,11,00,10.90
2011,04,22,11,01,10.90
2011,04,22,11,02,10.90
2011,04,22,11,03,10.90
2011,04,22,11,04,10.90
2011,04,22,11,05,10.90
2011,04,22,11,06,10.90
2011,04,22,11,07,10.80
2011,04,22,11,08,10.80
2011,04,22,11,09,10.80
2011,04,22,11,10,10.80
2011,04,22,11,11,10.80
2011,04,22,11,12,10.80
2011,04,22,11,13,10.80
2011,04,22,11,14,10.80
2011,04,22,11,15,10.70
2011,04,22,11,16,10.60
2011,04,22,11,17,10.50
2011,04,22,11,18,10.60
2011,04,22,11,19,10.60
2011,04,22,11,20,10.60
2011,04,22,11,21,10.70
2011,04,22,11,22,10.80
2011,04,22,11,23,10.80
2011,04,22,11,24,10.90
2011,04,22,11,25,11.10
2011,04,22,11,26,11.10
2011,04,22,11,27,11.10
2011,04,22,11,28,11.10
2011,04,22,11,29,11.00
2011,04,22,11,30,10.90
2011,04,22,11,31,10.90
2011,04,22,11,32,10.90
2011,04,22,11,33,10.90
2011,04,22,11,34,10.90
2011,04,22,11,35,10.90
2011,04,22,11,36,10.90
2011,04,22,11,37,10.90
2011,04,22,11,38,10.90
2011,04,22,11,39,11.00
2011,04,22,11,40,11.10
2011,04,22,11,41,11.30
2011,04,22,11,42,11.40
2011,04,22,11,43,11.30
2011,04,22,11,44,11.20
2011,04,22,11,45,11.20
2011,04,22,11,46,11.10
2011,04,22,11,47,11.10
2011,04,22,11,48,11.10
2011,04,22,11,49,11.10
2011,04,22,11,50,11.10
2011,04,22,11,51,11.20
2011,04,22,11,52,11.10
2011,04,22,11,53,11.00
2011,04,22,11,54,10.90
2011,04,22,11,55,11.10
2011,04,22,11,56,11.10
2011,04,22,11,57,11.10
2011,04,22,11,58,11.10
2011,04,22,11,59,11.10
2011,04,22,12,00,11.10
2011,04,22,12,01,11.10
2011,04,22,12,02,11.20
2011,04,22,12,03,11.30
2011,04,22,12,04,11.40
2011,04,22,12,05,11.40
2011,04,22,12,06,11.20
2011,04,22,12,07,11.20
2011,04,22,12,08,11.20
2011,04,22,12,09,11.20
2011,04,22,12,10,11.20
2011,04,22,12,11,11.20
2011,04,22,12,12,11.20
2011,04,22,12,13,11.20
2011,04,22,12,14,11.10
2011,04,22,12,15,11.10
2011,04,22,12,16,11.10
2011,04,22,12,17,11.10
2011,04,22,12,18,11.10
2011,04,22,12,19,11.20
2011,04,22,12,20,11.30
2011,04,22,12,21,11.40
2011,04,22,12,22,11.50
2011,04,22,12,23,11.60
2011,04,22,12,24,11.70
2011,04,22,12,25,11.70
2011,04,22,12,26,11.60
2011,04,22,12,27,11.60
2011,04,22,12,28,11.50
2011,04,22,12,29,11.40
2011,04,22,12,30,11.30
2011,04,22,12,31,11.30
2011,04,22,12,32,11.30
2011,04,22,12,33,11.30
2011,04,22,12,34,11.20
2011,04,22,12,35,11.20
2011,04,22,12,36,11.20
2011,04,22,12,37,11.30
2011,04,22,12,38,11.30
2011,04,22,12,39,11.30
2011,04,22,12,40,11.30
2011,04,22,12,41,11.30
2011,04,22,12,42,11.30
2011,04,22,12,43,11.40
2011,04,22,12,44,11.50
2011,04,22,12,45,11.70
2011,04,22,12,46,11.80
2011,04,22,12,47,11.80
2011,04,22,12,48,11.80
2011,04,22,12,49,11.70
2011,04,22,12,50,11.60
2011,04,22,12,51,11.60
2011,04,22,12,52,11.60
2011,04,22,12,53,11.60
2011,04,22,12,54,11.40
2011,04,22,12,55,11.40
2011,04,22,12,56,11.40
2011,04,22,12,57,11.40
2011,04,22,12,58,11.50
2011,04,22,12,59,11.60
2011,04,22,13,00,11.60
2011,04,22,13,01,11.60
2011,04,22,13,02,11.60
2011,04,22,13,03,11.60
2011,04,22,13,04,11.60
2011,04,22,13,05,11.60
2011,04,22,13,06,11.60
2011,04,22,13,07,11.70
2011,04,22,13,08,11.70
2011,04,22,13,09,11.70
2011,04,22,13,10,11.60
2011,04,22,13,11,11.60
2011,04,22,13,12,11.60
2011,04,22,13,13,11.60
2011,04,22,13,14,11.60
2011,04,22,13,15,11.60
2011,04,22,13,16,11.70
2011,04,22,13,17,11.70
2011,04,22,13,18,11.70
2011,04,22,13,19,11.70
2011,04,22,13,20,11.80
2011,04,22,13,21,11.70
2011,04,22,13,22,11.70
2011,04,22,13,23,11.70
2011,04,22,13,24,11.80
2011,04,22,13,25,11.90
2011,04,22,13,26,11.90
2011,04,22,13,27,11.90
2011,04,22,13,28,11.80
2011,04,22,13,29,11.80
2011,04,22,13,30,11.80
2011,04,22,13,31,11.70
2011,04,22,13,32,11.60
2011,04,22,13,33,11.60
2011,04,22,13,34,11.60
2011,04,22,13,35,11.70
2011,04,22,13,36,11.70
2011,04,22,13,37,11.80
2011,04,22,13,38,11.70
2011,04,22,13,39,11.80
2011,04,22,13,40,11.90
2011,04,22,13,41,11.90
2011,04,22,13,42,12.00
2011,04,22,13,43,12.10
2011,04,22,13,44,12.20
2011,04,22,13,45,12.30
2011,04,22,13,46,12.30
2011,04,22,13,47,12.30
2011,04,22,13,48,12.30
2011,04,22,13,49,12.40
2011,04,22,13,50,12.50
2011,04,22,13,51,12.50
2011,04,22,13,52,12.60
2011,04,22,13,53,12.60
2011,04,22,13,54,12.50
2011,04,22,13,55,12.40
2011,04,22,13,56,12.40
2011,04,22,13,57,12.30
2011,04,22,13,58,12.20
2011,04,22,13,59,12.10
2011,04,22,14,00,11.90
2011,04,22,14,01,11.80
2011,04,22,14,02,11.80
2011,04,22,14,03,11.80
2011,04,22,14,04,11.80
2011,04,22,14,05,11.80
2011,04,22,14,06,11.90
2011,04,22,14,07,11.90
2011,04,22,14,08,11.80
2011,04,22,14,09,11.80
2011,04,22,14,10,11.70
2011,04,22,14,11,11.70
2011,04,22,14,12,11.70
2011,04,22,14,13,11.60
2011,04,22,14,14,11.70
2011,04,22,14,15,11.80
2011,04,22,14,16,11.80
2011,04,22,14,17,11.70
2011,04,22,14,18,11.70
2011,04,22,14,19,11.60
2011,04,22,14,20,11.60
2011,04,22,14,21,11.70
2011,04,22,14,22,11.80
2011,04,22,14,23,11.90
2011,04,22,14,24,12.00
2011,04,22,14,25,12.10
2011,04,22,14,26,12.30
2011,04,22,14,27,12.40
2011,04,22,14,28,12.40
2011,04,22,14,29,12.30
2011,04,22,14,30,12.10
2011,04,22,14,31,12.10
2011,04,22,14,32,12.00
2011,04,22,14,33,12.00
2011,04,22,14,34,12.10
2011,04,22,14,35,12.10
2011,04,22,14,36,12.10
2011,04,22,14,37,12.00
2011,04,22,14,38,11.90
2011,04,22,14,39,11.90
2011,04,22,14,40,12.00
2011,04,22,14,41,12.10
2011,04,22,14,42,12.30
2011,04,22,14,43,12.30
2011,04,22,14,44,12.40
2011,04,22,14,45,12.40
2011,04,22,14,46,12.40
2011,04,22,14,47,12.50
2011,04,22,14,48,12.50
2011,04,22,14,49,12.40
2011,04,22,14,50,12.40
2011,04,22,14,51,12.40
2011,04,22,14,52,12.30
2011,04,22,14,53,12.30
2011,04,22,14,54,12.30
2011,04,22,14,55,12.30
2011,04,22,14,56,12.20
2011,04,22,14,57,12.10
2011,04,22,14,58,12.10
2011,04,22,14,59,12.00
2011,04,22,15,00,12.00
2011,04,22,15,01,12.00
2011,04,22,15,02,12.00
2011,04,22,15,03,12.10
2011,04,22,15,04,12.10
2011,04,22,15,05,12.10
2011,04,22,15,06,12.10
2011,04,22,15,07,12.00
2011,04,22,15,08,11.90
2011,04,22,15,09,11.80
2011,04,22,15,10,11.80
2011,04,22,15,11,11.80
2011,04,22,15,12,11.90
2011,04,22,15,13,12.00
2011,04,22,15,14,11.90
2011,04,22,15,15,11.90
2011,04,22,15,16,11.80
2011,04,22,15,17,11.80
2011,04,22,15,18,11.80
2011,04,22,15,19,11.80
2011,04,22,15,20,11.80
2011,04,22,15,21,11.70
2011,04,22,15,22,11.80
2011,04,22,15,23,11.80
2011,04,22,15,24,11.90
2011,04,22,15,25,11.80
2011,04,22,15,26,11.80
2011,04,22,15,27,11.80
2011,04,22,15,28,11.80
2011,04,22,15,29,11.80
2011,04,22,15,30,11.80
2011,04,22,15,31,11.80
2011,04,22,15,32,11.80
2011,04,22,15,33,11.70
2011,04,22,15,34,11.80
2011,04,22,15,35,11.80
2011,04,22,15,36,11.90
2011,04,22,15,37,12.00
2011,04,22,15,38,12.10
2011,04,22,15,39,12.20
2011,04,22,15,40,12.20
2011,04,22,15,41,12.30
2011,04,22,15,42,12.30
2011,04,22,15,43,12.30
2011,04,22,15,44,12.30
2011,04,22,15,45,12.20
2011,04,22,15,46,12.20
2011,04,22,15,47,12.20
2011,04,22,15,48,12.20
2011,04,22,15,49,12.20
2011,04,22,15,50,12.30
2011,04,22,15,51,12.30
2011,04,22,15,52,12.40
2011,04,22,15,53,12.40
2011,04,22,15,54,12.40
2011,04,22,15,55,12.30
2011,04,22,15,56,12.30
2011,04,22,15,57,12.30
2011,04,22,15,58,12.30
2011,04,22,15,59,12.30
2011,04,22,16,00,12.30
2011,04,22,16,01,12.30
2011,04,22,16,02,12.30
2011,04,22,16,03,12.30
2011,04,22,16,04,12.20
2011,04,22,16,05,12.10
2011,04,22,16,06,12.10
2011,04,22,16,07,12.10
2011,04,22,16,08,12.00
2011,04,22,16,09,12.00
2011,04,22,16,10,12.10
2011,04,22,16,11,12.10
2011,04,22,16,12,12.10
2011,04,22,16,13,12.10
2011,04,22,16,14,12.10
2011,04,22,16,15,12.10
2011,04,22,16,16,12.10
2011,04,22,16,17,12.10
2011,04,22,16,18,12.10
2011,04,22,16,19,12.10
2011,04,22,16,20,12.10
2011,04,22,16,21,12.10
2011,04,22,16,22,12.20
2011,04,22,16,23,12.30
2011,04,22,16,24,12.30
2011,04,22,16,25,12.20
2011,04,22,16,26,12.20
2011,04,22,16,27,12.30
2011,04,22,16,28,12.40
2011,04,22,16,29,12.40
2011,04,22,16,30,12.30
2011,04,22,16,31,12.30
2011,04,22,16,32,12.20
2011,04,22,16,33,12.10
2011,04,22,16,34,12.10
2011,04,22,16,35,12.20
2011,04,22,16,36,12.20
2011,04,22,16,37,12.30
2011,04,22,16,38,12.30
2011,04,22,16,39,12.30
2011,04,22,16,40,12.30
2011,04,22,16,41,12.40
2011,04,22,16,42,12.50
2011,04,22,16,43,12.50
2011,04,22,16,44,12.60
2011,04,22,16,45,12.50
2011,04,22,16,46,12.40
2011,04,22,16,47,12.30
2011,04,22,16,48,12.30
2011,04,22,16,49,12.30
2011,04,22,16,50,12.20
2011,04,22,16,51,12.20
2011,04,22,16,52,12.10
2011,04,22,16,53,12.10
2011,04,22,16,54,12.00
2011,04,22,16,55,12.00
2011,04,22,16,56,12.00
2011,04,22,16,57,12.10
2011,04,22,16,58,12.20
2011,04,22,16,59,12.20
2011,04,22,17,00,12.20
2011,04,22,17,01,12.30
2011,04,22,17,02,12.20
2011,04,22,17,03,12.20
2011,04,22,17,04,12.10
2011,04,22,17,05,12.10
2011,04,22,17,06,12.10
2011,04,22,17,07,12.10
2011,04,22,17,08,12.10
2011,04,22,17,09,12.20
2011,04,22,17,10,12.10
2011,04,22,17,11,12.10
2011,04,22,17,12,12.10
2011,04,22,17,13,12.10
2011,04,22,17,14,12.10
2011,04,22,17,15,12.10
2011,04,22,17,16,12.20
2011,04,22,17,17,12.30
2011,04,22,17,18,12.30
2011,04,22,17,19,12.30
2011,04,22,17,20,12.30
2011,04,22,17,21,12.30
2011,04,22,17,22,12.30
2011,04,22,17,23,12.30
2011,04,22,17,24,12.30
2011,04,22,17,25,12.30
2011,04,22,17,26,12.30
2011,04,22,17,27,12.30
2011,04,22,17,28,12.20
2011,04,22,17,29,12.20
2011,04,22,17,30,12.20
2011,04,22,17,31,12.20
2011,04,22,17,32,12.30
2011,04,22,17,33,12.30
2011,04,22,17,34,12.30
2011,04,22,17,35,12.20
2011,04,22,17,36,12.20
2011,04,22,17,37,12.20
2011,04,22,17,38,12.10
2011,04,22,17,39,12.10
2011,04,22,17,40,12.10
2011,04,22,17,41,12.10
2011,04,22,17,42,12.10
2011,04,22,17,43,12.10
2011,04,22,17,44,12.10
2011,04,22,17,45,12.10